Regional Weather Roundup
Issued by NWS Memphis, TN

Home | Current Version | Previous Version | Text Only | Print | Product List | Glossary On
Versions: 1 2 3 4 5 6 7 8 9 10 11 12 13 14 15 16 17 18 19 20 21 22 23 24 25 26 27 28 29 30 31 32 33 34 35 36 37 38 39 40 41 42 43 44 45 46 47 48 49 50
000
ASUS44 KMEG 280810
RWRMEG
MEMPHIS CWA HOURLY WEATHER ROUNDUP
NATIONAL WEATHER SERVICE MEMPHIS TN
300 AM CDT THU MAY 28 2015

...WEST TENNESSEE...

CITY           SKY/WX    TMP DP  RH WIND       PRES   REMARKS
MEMPHIS INTL   CLOUDY    70  66  87 SE5       30.12F
NWS MEMPHIS      N/A     68 N/A N/A MISG        N/A
JACKSON        NOT AVBL
LEXINGTON      CLOUDY    63  61  94 CALM      30.14S VSB 1/4
DYERSBURG      CLEAR     66  52  59 CALM      30.14F
PARIS            N/A     61  59  94 CALM      30.14F VSB 1/4


...EASTERN ARKANSAS...

CITY           SKY/WX    TMP DP  RH WIND       PRES   REMARKS
JONESBORO      PTCLDY    63  63 100 CALM      30.12F
BATESVILLE     MOCLDY    70  66  88 S3        30.12F
NEWPORT        MOCLDY    67  67 100 S5        30.13S
WALNUT RIDGE   PTCLDY    66  64  94 CALM      30.13R
BLYTHEVILLE    CLEAR     67  66  97 S3        30.13F
STUTTGART      MOCLDY    70  66  88 E3        30.11S
PINE BLUFF     FOG       70  70 100 S5        30.10S VSB 1/2
MONTICELLO     FOG       68  68 100 CALM      30.09F VSB 1/4


...NORTH MISSISSIPPI...

CITY           SKY/WX    TMP DP  RH WIND       PRES   REMARKS
TUPELO         CLOUDY    68  65  90 CALM      30.13F
OXFORD         CLOUDY    66  66 100 SE3       30.14F
OLIVE BRANCH   CLOUDY    66 N/A N/A S5        30.13F
TUNICA         CLOUDY    70  66  88 S7        30.12F
CLARKSDALE     CLOUDY    68  68 100 MISG      30.12S
GREENWOOD      PTCLDY    69  66  90 CALM      30.10F
COLUMBUS       MOCLDY    68  68 100 E2        30.12F
STARKVILLE     FAIR      64  64 100 CALM      30.13S FOG
GOLDEN TRIANGL CLOUDY    68  66  94 CALM      30.12F


...SOUTHEAST MISSOURI...

CITY           SKY/WX    TMP DP  RH WIND       PRES   REMARKS
WEST PLAINS    CLOUDY    67  65  93 SE3       30.13F
POPLAR BLUFF   MOCLDY    68  66  93 NE3       30.13S
CAPE GIRARDEAU MOCLDY    68  67  96 E3        30.14S


...NORTHWEST ALABAMA...

CITY           SKY/WX    TMP DP  RH WIND       PRES   REMARKS
MUSCLE SHOALS  CLOUDY    66  63  90 NW3       30.15R


...MIDDLE TENNESSEE...

CITY           SKY/WX    TMP DP  RH WIND       PRES   REMARKS
CLARKSVILLE    FOG       65  64  97 CALM      30.14F VSB 1/4
COLUMBIA       MOCLDY    66  66 100 SE3       30.12F


...WESTERN KENTUCKY...

CITY           SKY/WX    TMP DP  RH WIND       PRES   REMARKS
PADUCAH        PTCLDY    67  65  93 CALM      30.14S
FORT CAMPBELL  CLOUDY    66  65  97 CALM      30.15S


...CENTRAL ARKANSAS...

CITY           SKY/WX    TMP DP  RH WIND       PRES   REMARKS
LITTLE ROCK    CLOUDY    70  67  90 CALM      30.10F


SKY/WX REPORTED AS FAIR MEANS FEW OR NO CLOUDS BELOW
12 THOUSAND FEET.



USA.gov is the U.S. government's official web portal to all federal, state and local government web resources and services.